Wind_Speed
29 34 37 39 38 35 38 39 67 74 61 58 61 62 55 57 57 54 57 70 66 62 58 53 46 44 44 41 39 37 35 33 32 31 30 32 31 30 28 25 23 21 18
32 35 39 39 43 39 36 38 48 63 77 56 54 47 61 62 63 41 54 59 60 61 58 57 57 52 50 46 44 41 40 38 34 32 33 33 33 32 30 28 25 22 20
33 35 38 39 38 43 40 38 40 42 69 68 58 57 66 61 55 43 40 41 53 66 57 57 55 59 60 58 53 45 42 40 38 35 35 36 36 33 32 30 27 24 22
34 38 39 39 39 40 41 42 41 38 57 71 69 57 64 55 56 34 46 54 48 42 58 71 60 64 61 62 57 51 44 41 40 38 36 36 34 35 33 31 28 26 24
35 34 36 40 42 41 42 42 43 39 45 69 74 61 64 56 62 41 34 48 44 41 47 66 56 57 66 53 55 52 46 48 41 39 36 36 36 35 33 30 28 26 25
34 35 38 38 42 46 44 43 45 40 41 53 60 69 55 61 61 38 52 39 49 45 47 53 68 37 29 49 59 56 43 53 44 47 42 37 34 32 32 31 28 26 25
28 34 34 34 35 36 40 40 44 43 41 47 53 70 69 63 51 50 36 41 52 55 58 47 42 36 40 48 44 42 35 41 51 52 43 38 37 35 33 31 30 28 28
32 33 33 35 33 34 35 37 41 43 40 44 50 66 69 60 61 60 53 41 49 54 51 45 37 48 40 30 34 41 46 30 37 47 39 35 35 36 36 35 33 32 31
29 30 30 31 31 32 35 36 37 41 36 39 42 54 69 69 66 65 69 58 49 48 43 36 31 31 42 31 33 35 45 36 37 32 47 48 40 40 39 39 37 36 34
28 26 26 26 28 29 34 37 35 38 39 33 34 50 62 68 66 74 68 56 51 52 44 39 37 36 36 36 36 36 38 40 40 38 39 47 52 47 44 44 41 39 35
29 25 23 23 25 26 32 33 31 32 37 32 38 45 57 66 68 68 59 46 55 51 48 44 41 40 38 40 40 35 37 41 43 44 48 47 44 49 47 45 40 39 34
29 27 23 22 22 23 28 32 29 34 34 34 35 40 51 57 56 76 63 47 53 53 49 47 48 46 43 41 39 42 38 40 39 43 45 45 47 55 51 43 38 38 39
27 26 23 21 22 21 23 29 30 36 27 39 29 37 45 53 48 62 56 52 50 58 53 48 50 51 48 45 45 45 41 43 41 39 40 44 47 49 49 46 44 46 40
26 26 24 21 21 21 20 22 27 33 34 35 29 37 42 50 47 60 69 58 51 56 55 53 49 50 51 48 49 47 46 43 47 49 43 46 49 47 45 47 48 48 42
24 25 25 22 20 19 18 17 22 29 32 36 39 34 42 46 44 54 58 61 56 57 59 60 54 53 54 51 50 52 48 47 43 41 37 40 40 44 45 45 46 48 53
26 28 26 26 23 21 17 15 19 25 31 31 33 28 35 43 47 60 55 44 62 51 53 68 59 58 57 55 51 51 49 46 47 45 42 38 40 46 51 54 54 56 58
29 32 31 28 26 23 20 15 16 21 26 30 33 29 32 38 52 46 44 46 51 56 49 62 61 59 59 58 54 54 51 50 47 49 45 51 43 43 45 51 54 56 53
34 36 34 31 26 24 21 17 16 17 22 26 28 28 30 32 49 50 41 43 50 55 57 54 68 62 61 60 60 55 49 50 50 48 49 47 48 49 44 43 49 50 50
39 32 32 32 27 25 23 19 17 17 18 25 26 26 29 32 33 50 43 51 55 57 58 53 57 58 60 60 57 52 50 49 51 50 51 47 46 46 52 50 49 50 52
33 32 33 32 27 23 23 21 18 18 19 19 22 25 28 33 33 38 39 50 58 56 53 57 56 52 54 51 51 49 54 52 51 53 54 49 49 46 45 44 48 49 46
31 33 32 28 26 23 21 20 19 18 19 20 20 22 26 30 33 38 38 49 59 64 59 53 60 53 55 52 51 51 54 51 56 53 52 50 50 49 48 45 46 43 41
30 30 26 25 24 23 21 20 19 18 19 19 18 16 20 29 34 35 36 52 52 60 63 64 60 68 52 48 53 54 46 51 56 52 54 52 50 46 44 47 49 47 45
27 26 26 23 23 22 22 20 18 17 17 17 18 18 20 27 32 32 33 37 51 56 57 60 53 58 54 62 55 51 49 47 47 48 45 43 43 45 48 49 53 50 46
27 27 27 25 23 22 21 22 21 16 17 16 17 16 18 23 30 31 27 28 34 45 51 57 56 61 61 56 59 53 51 51 50 48 54 50 54 48 50 50 54 47 44
25 26 26 25 24 22 21 21 22 19 16 17 16 14 17 19 24 25 27 29 30 37 48 57 62 61 64 71 60 61 57 54 53 49 45 50 48 52 54 53 48 44 41
24 24 25 25 23 22 22 20 21 21 18 15 15 15 14 15 22 26 27 29 29 31 42 51 61 67 67 68 56 56 55 52 49 51 54 52 49 52 52 48 44 42 41
Wind_Direction
260 263 265 264 260 263 254 252 245 223 220 210 219 219 214 213 219 227 230 220 215 219 221 224 221 222 224 224 222 222 224 224 221 219 219 220 221 222 224 226 226 229 231
259 264 267 266 261 261 257 249 250 246 242 221 214 216 216 216 219 235 230 220 213 217 218 221 224 226 229 225 224 224 223 223 223 224 221 222 223 223 225 227 229 231 232
257 261 266 264 261 262 260 250 250 249 242 240 212 219 220 218 222 237 241 220 226 214 222 224 224 225 225 231 230 226 227 225 227 226 226 226 225 225 226 227 229 231 232
265 265 262 265 263 258 258 255 247 247 240 241 241 220 212 221 217 244 240 235 224 229 216 217 228 230 221 229 225 220 221 222 225 229 229 227 230 229 229 229 230 231 232
271 268 267 266 265 264 256 254 247 242 238 240 238 219 211 221 223 225 247 230 228 228 231 219 236 220 240 226 222 221 218 222 224 228 231 231 230 229 229 232 235 235 236
272 273 274 270 266 262 259 256 249 240 238 236 238 228 215 220 218 233 243 249 230 230 211 213 224 215 224 227 216 236 232 231 225 224 227 228 230 232 234 234 233 232 234
293 276 275 279 275 261 253 255 247 241 240 235 231 232 221 217 225 224 230 221 231 227 226 233 220 215 218 224 220 224 216 221 226 229 228 228 226 223 225 228 229 230 232
303 295 280 275 274 263 251 254 245 240 247 232 229 229 230 225 221 223 222 239 232 227 229 234 239 239 200 218 218 231 217 234 230 229 224 222 230 230 227 225 226 227 232
303 291 282 278 273 261 250 247 247 247 247 234 228 226 230 226 223 222 226 235 237 228 226 219 219 222 240 245 231 228 234 249 230 233 233 236 229 229 231 232 228 229 231
315 300 290 280 271 260 249 242 245 245 245 241 235 224 230 231 228 220 212 237 236 222 215 214 216 221 216 215 218 218 218 221 220 214 224 227 229 225 224 228 229 231 231
322 311 296 286 271 258 248 237 239 246 241 243 239 225 223 228 228 223 222 226 223 208 210 213 216 221 217 214 217 220 213 217 219 223 224 229 229 227 227 231 231 232 234
327 320 305 293 278 260 248 240 234 235 229 229 224 229 222 225 223 224 221 220 217 211 205 212 216 220 222 218 219 221 215 217 217 222 225 223 226 224 224 229 233 240 239
330 327 313 299 292 273 254 242 233 232 234 234 216 229 229 221 224 230 228 235 229 216 210 213 215 218 218 219 218 220 223 225 214 229 226 225 228 226 227 229 226 236 235
327 331 326 310 302 288 262 246 235 238 242 236 226 209 218 222 224 224 229 231 228 224 212 211 219 218 217 218 218 220 225 225 227 226 230 230 231 228 228 228 228 232 234
326 329 329 325 310 299 281 258 237 232 235 236 231 213 215 211 218 224 230 229 228 218 213 212 221 218 218 217 215 221 223 223 222 219 223 226 227 225 226 232 232 233 239
323 330 328 327 322 309 294 269 242 228 224 225 227 216 213 216 217 220 227 231 229 223 219 212 218 218 218 216 215 221 222 223 228 224 226 225 230 229 227 230 234 241 244
315 321 327 322 321 316 304 283 254 236 222 218 216 211 207 213 214 232 237 232 227 217 222 210 216 215 217 218 216 219 222 224 222 227 227 227 226 231 234 239 241 241 243
312 313 316 316 312 313 307 295 276 251 230 219 212 209 207 208 213 226 235 237 235 230 216 212 218 216 216 218 219 220 221 226 227 227 227 231 228 234 238 241 248 243 243
304 307 310 311 307 308 309 300 282 265 248 222 217 211 207 209 210 220 232 222 223 213 212 219 211 217 218 221 223 221 224 223 226 227 230 238 234 234 237 240 241 238 240
295 298 302 302 300 300 305 304 292 273 255 239 226 214 209 214 213 219 228 221 223 216 218 215 212 223 223 224 222 221 220 226 230 229 230 228 230 230 235 236 242 239 246
287 294 298 295 295 293 297 302 297 284 262 245 237 217 210 213 217 222 227 219 220 220 220 216 215 219 215 222 220 230 226 229 230 233 229 233 237 237 236 239 241 244 246
289 292 293 293 295 294 293 296 298 289 271 260 250 229 209 212 220 224 225 217 212 214 220 218 222 220 224 217 223 226 227 230 230 231 239 236 235 232 244 243 240 241 241
287 288 289 291 294 294 292 291 294 292 279 267 251 234 214 206 212 217 216 214 217 221 220 219 227 220 215 222 225 218 224 228 229 233 227 229 227 235 243 235 237 233 233
285 285 286 288 290 292 292 293 293 293 284 272 261 248 225 214 211 215 214 212 217 221 225 228 227 220 219 219 225 224 225 229 230 228 230 231 235 234 239 236 229 223 227
283 284 284 284 284 286 288 289 290 291 286 282 269 253 236 220 215 217 213 211 213 218 222 223 224 221 221 224 221 224 226 229 228 227 229 224 227 228 229 220 216 217 222
282 283 284 283 281 283 284 285 287 289 285 279 273 262 249 223 221 217 215 216 212 220 220 220 221 221 223 215 218 219 225 225 230 232 226 224 227 227 225 215 211 214 217
Height
2994 2992 2992 2994 2996 2997 2999 3002 3005 3010 3012 3021 3030 3034 3042 3049 3054 3056 3058 3071 3083 3089 3097 3105 3114 3118 3124 3132 3138 3143 3146 3150 3154 3159 3163 3166 3170 3173 3177 3180 3182 3185 3187
2987 2986 2984 2985 2985 2986 2988 2990 2992 2999 3004 3012 3022 3027 3036 3042 3047 3053 3052 3049 3065 3081 3087 3095 3105 3110 3117 3122 3130 3137 3140 3144 3149 3154 3158 3162 3166 3169 3173 3176 3180 3183 3185
2979 2979 2977 2977 2978 2979 2979 2983 2986 2988 2998 2998 3008 3017 3027 3033 3039 3040 3045 3048 3051 3061 3076 3087 3096 3101 3107 3115 3123 3129 3135 3140 3144 3149 3152 3156 3160 3165 3169 3172 3176 3180 3182
2972 2970 2969 2968 2969 2972 2974 2973 2978 2979 2984 2992 2998 3006 3014 3022 3033 3036 3040 3043 3050 3059 3047 3068 3084 3091 3098 3107 3114 3122 3128 3132 3137 3142 3147 3152 3158 3159 3165 3169 3172 3175 3178
2963 2962 2961 2960 2959 2959 2962 2967 2971 2972 2973 2979 2985 2995 3003 3014 3023 3028 3031 3038 3046 3054 3058 3063 3069 3078 3089 3096 3102 3111 3118 3127 3132 3137 3142 3147 3152 3156 3160 3165 3169 3172 3174
2958 2955 2953 2952 2951 2951 2949 2951 2955 2964 2967 2974 2980 2985 2991 3006 3014 3021 3021 3031 3040 3051 3052 3056 3064 3070 3080 3086 3093 3103 3108 3116 3125 3131 3136 3141 3147 3153 3156 3161 3164 3168 3170
2950 2947 2944 2942 2940 2939 2943 2945 2944 2949 2950 2962 2970 2977 2985 2995 3003 3013 3020 3020 3033 3043 3046 3054 3061 3069 3077 3083 3090 3093 3101 3109 3115 3124 3130 3136 3141 3145 3149 3153 3157 3161 3165
2942 2938 2935 2932 2931 2930 2934 2936 2940 2945 2948 2950 2955 2964 2974 2985 2995 3005 3011 3016 3024 3035 3045 3052 3057 3062 3067 3074 3085 3090 3094 3101 3108 3115 3121 3128 3135 3141 3144 3147 3151 3155 3158
2937 2932 2928 2925 2923 2923 2925 2928 2929 2933 2935 2939 2944 2954 2964 2974 2986 2995 3001 3011 3018 3025 3036 3044 3049 3051 3059 3067 3074 3080 3088 3093 3100 3108 3116 3122 3128 3132 3137 3142 3145 3148 3153
2931 2927 2922 2920 2918 2917 2918 2920 2922 2925 2928 2931 2936 2944 2953 2963 2973 2982 2992 2999 3008 3016 3024 3034 3041 3047 3052 3058 3063 3070 3077 3083 3092 3099 3105 3110 3116 3122 3125 3131 3137 3142 3147
2926 2922 2917 2914 2912 2912 2912 2913 2917 2920 2923 2927 2931 2935 2942 2954 2960 2971 2984 2990 2998 3005 3015 3025 3033 3039 3044 3051 3058 3065 3071 3077 3083 3090 3096 3102 3107 3113 3120 3126 3131 3137 3142
2923 2917 2913 2909 2906 2905 2904 2904 2907 2912 2916 2923 2923 2923 2929 2940 2949 2961 2972 2977 2985 2994 3005 3016 3024 3031 3037 3043 3050 3059 3063 3071 3074 3082 3089 3095 3100 3105 3112 3118 3125 3131 3137
2921 2915 2910 2905 2901 2899 2897 2896 2898 2903 2905 2908 2906 2908 2920 2933 2940 2952 2962 2968 2976 2985 2995 3005 3013 3020 3027 3034 3043 3051 3057 3064 3069 3077 3083 3088 3092 3096 3103 3110 3117 3124 3126
2917 2912 2906 2901 2896 2893 2891 2888 2888 2891 2896 2900 2903 2910 2917 2922 2931 2942 2953 2960 2967 2974 2984 2994 3003 3010 3018 3026 3034 3042 3049 3055 3061 3069 3076 3080 3084 3090 3098 3104 3111 3116 3119
2914 2909 2903 2898 2893 2890 2886 2883 2882 2885 2887 2893 2898 2903 2907 2913 2922 2935 2945 2950 2956 2965 2975 2985 2993 3000 3007 3015 3023 3033 3039 3047 3054 3061 3068 3073 3078 3084 3091 3097 3102 3106 3110
2909 2905 2900 2895 2891 2887 2884 2881 2879 2880 2884 2885 2887 2889 2896 2904 2912 2920 2932 2939 2947 2955 2962 2973 2982 2990 2998 3006 3015 3024 3030 3038 3046 3053 3061 3066 3070 3074 3082 3087 3091 3096 3100
2903 2899 2896 2892 2887 2883 2880 2878 2877 2876 2874 2876 2879 2888 2894 2899 2899 2917 2924 2931 2937 2944 2949 2961 2972 2981 2989 2997 3007 3014 3022 3031 3037 3045 3050 3055 3062 3068 3074 3077 3081 3084 3088
2895 2893 2890 2887 2883 2878 2875 2872 2871 2871 2872 2874 2876 2879 2882 2886 2895 2911 2914 2919 2924 2932 2942 2952 2962 2971 2980 2988 2997 3006 3015 3021 3028 3036 3042 3048 3055 3059 3064 3069 3072 3076 3079
2887 2886 2882 2879 2876 2872 2868 2865 2864 2864 2866 2863 2865 2867 2871 2877 2889 2897 2902 2907 2916 2924 2932 2940 2950 2961 2970 2979 2989 2997 3004 3011 3018 3026 3031 3039 3044 3050 3055 3059 3062 3067 3071
2880 2878 2876 2873 2870 2867 2863 2860 2857 2855 2854 2856 2860 2860 2863 2873 2877 2881 2887 2896 2903 2913 2921 2932 2942 2951 2961 2970 2980 2988 2994 3001 3008 3014 3021 3027 3035 3040 3044 3049 3054 3059 3065
2874 2871 2868 2865 2863 2861 2859 2856 2853 2851 2851 2852 2856 2857 2855 2852 2859 2875 2881 2889 2895 2904 2914 2922 2934 2940 2949 2959 2969 2978 2983 2989 2998 3004 3011 3018 3026 3032 3037 3041 3046 3054 3059
2868 2864 2861 2859 2857 2856 2853 2852 2850 2848 2846 2843 2837 2828 2833 2852 2862 2870 2873 2881 2886 2895 2903 2914 2921 2928 2936 2948 2959 2967 2973 2980 2986 2995 3002 3010 3016 3025 3029 3034 3040 3044 3048
2861 2858 2855 2854 2851 2850 2847 2846 2845 2843 2843 2842 2842 2845 2848 2850 2859 2864 2867 2867 2872 2880 2889 2897 2904 2917 2927 2938 2948 2956 2963 2969 2975 2984 2992 2999 3007 3014 3017 3020 3028 3031 3035
2854 2851 2849 2847 2845 2844 2842 2839 2838 2837 2837 2837 2836 2833 2832 2840 2846 2851 2849 2845 2854 2865 2871 2884 2900 2909 2919 2927 2937 2946 2952 2957 2964 2972 2979 2987 2994 3000 3002 3007 3013 3018 3026
2846 2844 2842 2841 2840 2838 2837 2834 2832 2831 2830 2829 2829 2829 2828 2829 2824 2831 2838 2847 2854 2858 2867 2877 2889 2895 2905 2915 2927 2934 2943 2947 2954 2962 2969 2974 2978 2983 2987 2993 3002 3010 3017
2839 2838 2836 2834 2833 2832 2831 2829 2828 2826 2827 2827 2824 2820 2816 2809 2825 2831 2835 2840 2839 2852 2862 2870 2876 2885 2895 2906 2915 2925 2933 2937 2945 2950 2957 2963 2968 2973 2980 2988 2995 3002 3008